Wind_Speed
35 35 35 35 34 34 34 34 34 35 35 35 36 36 36 37 37 38 38 39 39 40 41 42 43 44 45 46 46 47 49 50 50 51 52 53 55 56 56 57 57 58 59
35 35 34 34 34 34 34 34 35 35 35 35 36 36 37 37 38 38 39 40 40 41 42 43 44 45 46 47 48 49 50 52 53 53 54 56 57 58 59 60 60 61 62
34 34 34 33 34 34 34 34 35 35 35 36 36 37 37 38 38 39 40 40 41 42 43 44 45 46 47 48 49 51 53 54 56 57 57 59 60 61 61 62 62 62 63
34 34 33 33 33 34 34 34 35 35 35 36 37 37 38 38 39 40 40 41 42 43 44 45 46 47 48 50 52 53 55 57 58 59 60 61 62 63 63 63 62 63 64
34 33 33 33 33 33 33 34 34 35 36 36 37 38 38 38 39 40 41 42 43 44 45 46 48 49 51 52 54 56 57 59 60 61 62 63 63 64 64 64 64 64 66
33 33 33 33 33 33 34 34 34 35 36 37 37 38 38 39 40 41 42 43 44 45 46 47 49 51 53 54 56 58 59 61 62 63 64 64 64 64 65 65 66 67 66
33 33 33 33 33 33 34 34 35 36 36 37 37 38 39 39 40 42 43 44 45 46 47 49 51 53 55 56 57 59 61 62 63 64 63 64 64 65 66 67 67 67 67
34 33 33 33 33 34 34 35 35 36 37 37 38 39 39 40 41 43 44 45 46 47 49 50 52 54 56 57 58 60 61 62 63 63 64 65 65 66 66 66 66 66 65
34 34 33 34 34 34 35 35 36 37 38 38 38 39 39 40 42 43 45 46 47 48 50 52 53 55 56 58 60 61 61 61 62 64 64 65 65 65 66 65 65 64 63
34 34 34 35 35 35 35 36 37 37 38 38 38 39 40 41 43 44 46 47 48 49 51 52 54 56 57 59 61 61 61 61 62 63 64 65 65 64 64 64 64 63 62
35 35 35 35 35 36 36 37 37 38 38 38 39 40 41 43 44 45 46 47 48 50 51 53 55 57 58 60 61 61 60 61 62 63 64 64 63 63 63 62 62 61 60
35 35 35 35 36 36 37 37 37 38 38 39 40 41 42 43 45 46 47 48 49 51 52 54 55 57 58 60 60 60 61 62 63 63 63 62 62 62 61 60 59 59 59
35 35 35 35 36 36 37 37 37 38 38 40 41 42 43 44 46 46 47 49 50 51 52 54 56 58 59 60 60 61 61 62 62 62 62 61 60 59 57 56 56 56 55
35 35 35 36 36 36 37 37 37 38 39 40 41 43 44 45 46 47 48 49 50 51 53 55 57 58 59 60 61 61 61 61 61 61 60 59 57 54 53 53 52 51 50
35 35 36 35 36 36 36 37 38 39 40 41 42 43 44 45 46 47 48 49 51 53 55 56 57 58 59 60 61 61 60 60 59 58 56 54 51 50 50 50 50 48 45
35 35 35 35 36 36 37 38 39 40 40 41 42 43 44 45 46 47 49 51 53 54 55 56 57 58 59 60 60 58 58 57 56 54 52 50 49 48 48 48 46 43 41
35 35 35 36 36 37 38 39 40 40 41 42 43 43 44 45 46 48 50 52 54 55 56 57 58 59 59 58 57 56 55 53 52 51 50 48 47 47 46 44 42 40 38
35 35 36 36 37 38 39 39 40 40 41 42 42 43 44 46 47 49 51 53 54 56 57 57 57 57 56 55 54 53 52 51 50 49 47 47 46 44 43 41 39 37 35
35 35 36 37 37 38 38 39 40 41 41 42 43 44 45 47 49 51 53 54 55 56 56 55 55 55 55 55 53 52 50 48 47 47 46 45 44 42 40 38 36 35 32
35 36 36 37 38 38 38 39 40 41 42 43 44 45 47 49 51 52 53 54 55 55 54 54 55 55 55 54 52 49 47 46 46 46 44 42 40 38 37 35 34 32 29
36 36 37 37 37 38 39 41 42 42 43 44 45 46 48 50 51 52 53 54 54 54 54 54 55 55 54 51 48 47 46 45 44 43 41 40 38 36 34 33 31 29 26
35 36 37 37 38 40 41 42 42 43 44 45 46 47 49 51 52 53 53 53 53 53 53 54 54 53 51 48 46 45 44 42 42 41 39 37 35 34 32 30 28 26 24
36 37 37 38 39 41 41 42 43 44 45 46 47 48 50 51 52 53 53 53 53 53 53 53 52 50 49 47 45 43 41 41 41 40 37 35 34 32 30 28 26 23 21
36 37 38 38 40 41 41 42 43 44 45 46 48 50 51 52 52 52 52 52 52 52 52 51 50 48 47 45 43 41 41 41 39 38 36 34 32 30 27 25 23 21 19
36 37 37 38 39 40 41 42 43 44 46 47 48 50 51 52 52 52 52 52 52 51 50 49 48 47 44 42 41 41 40 39 37 36 34 31 29 27 25 22 20 19 17
36 37 38 38 39 40 41 43 44 45 46 48 49 50 51 52 52 51 51 51 50 49 49 48 47 45 43 41 40 40 38 37 36 34 32 29 28 25 23 20 18 17 14
Wind_Direction
267 269 271 272 274 276 277 278 280 282 283 284 286 287 289 290 292 293 294 295 296 297 297 298 299 300 301 302 302 302 303 304 304 304 304 304 304 304 303 303 302 302 301
266 268 269 271 273 275 277 278 279 281 283 284 286 288 289 290 292 293 294 295 296 296 297 298 299 300 301 302 302 303 303 304 304 304 304 304 304 303 303 303 303 302 301
265 266 268 271 273 275 276 278 279 281 282 284 286 288 289 290 291 292 293 294 295 296 297 298 299 300 301 301 302 302 303 304 304 304 304 304 304 303 303 303 303 302 302
264 266 268 271 273 275 276 278 279 281 283 285 286 287 288 290 291 292 293 295 296 297 297 298 299 299 300 300 301 302 303 304 304 304 304 304 304 303 303 303 302 302 302
264 266 268 270 272 274 276 278 279 281 283 285 286 287 288 289 291 292 293 295 297 297 297 298 299 299 300 301 302 303 303 304 304 304 304 304 304 304 304 303 303 303 303
263 265 267 270 272 274 276 278 280 281 283 285 286 287 288 289 291 292 294 295 297 297 297 298 298 299 300 301 302 303 304 304 304 304 304 304 304 304 304 303 303 303 303
263 265 268 270 272 275 277 279 281 282 284 285 286 287 288 289 291 292 294 295 297 297 297 298 299 300 301 302 303 304 304 305 305 304 305 305 305 304 304 304 304 305 305
263 266 268 271 273 275 277 279 281 283 284 285 286 287 289 290 291 293 295 296 297 297 298 298 299 300 301 302 303 304 305 305 305 305 306 306 305 305 305 305 305 306 306
264 267 269 271 273 276 277 279 281 283 284 286 287 288 290 291 293 294 295 297 297 298 298 299 300 301 302 303 304 305 305 305 305 305 306 306 306 306 306 306 306 307 307
264 266 268 271 274 276 278 280 282 283 285 286 288 290 291 292 294 295 296 297 297 298 299 300 301 302 303 304 305 306 306 305 305 306 306 306 306 306 306 307 307 307 308
264 266 269 271 274 276 278 280 282 284 285 287 288 290 292 293 295 296 297 298 299 300 300 301 302 303 304 305 306 306 306 306 306 307 306 306 306 306 307 307 308 308 309
264 267 269 272 274 276 278 281 283 284 286 288 289 291 293 294 295 297 298 299 300 301 301 302 303 304 305 306 306 306 306 307 307 307 307 307 307 307 307 308 308 308 309
264 266 269 272 274 277 279 281 283 285 287 289 291 292 294 295 297 298 299 300 301 302 303 304 304 305 306 306 306 307 307 307 308 308 308 308 308 308 308 309 310 310 311
264 266 270 273 275 277 279 281 284 286 288 290 292 293 295 296 298 299 300 301 303 303 304 305 306 307 307 307 307 308 308 308 308 309 310 309 309 309 310 311 312 312 312
264 268 271 273 275 278 280 282 285 287 290 292 293 295 296 298 299 301 302 303 304 305 305 306 307 307 308 308 308 308 308 309 309 310 311 311 311 311 312 313 314 313 313
266 268 270 273 276 278 281 284 286 288 291 292 294 296 297 299 300 302 303 304 305 306 307 307 308 308 308 309 309 309 309 310 310 311 311 312 312 313 313 314 315 314 314
266 269 271 274 277 280 283 285 287 289 291 293 295 297 299 300 302 303 304 305 306 307 308 308 309 310 310 310 310 310 310 310 310 311 311 312 312 313 314 315 315 316 316
267 269 272 276 279 282 285 287 289 291 293 295 297 298 300 301 303 304 305 306 307 308 309 310 310 311 311 311 311 311 311 311 311 311 312 312 312 313 314 314 315 316 316
268 271 273 277 281 284 286 288 290 292 294 296 297 299 301 302 304 305 306 307 308 309 310 310 311 312 312 312 311 311 311 311 311 312 312 312 312 313 314 314 315 316 315
270 273 276 278 281 284 287 289 291 293 295 296 298 300 302 303 305 306 307 308 309 310 310 310 311 311 312 312 312 312 312 312 312 313 313 313 313 313 314 314 315 315 315
272 274 277 280 282 285 287 289 292 294 295 297 299 301 302 304 305 306 307 308 309 309 310 310 311 311 311 312 311 312 312 312 313 314 314 314 314 314 314 314 314 315 314
273 276 278 281 283 286 288 290 293 294 296 298 300 301 303 305 306 307 308 308 308 309 310 311 311 311 311 311 311 311 312 312 313 314 314 314 314 314 314 313 313 313 313
275 277 279 282 284 287 289 292 294 296 297 299 300 302 304 306 307 308 308 308 309 309 310 310 311 311 311 310 310 310 311 313 313 314 313 313 313 313 313 313 312 312 311
277 279 281 284 287 289 291 293 295 297 298 300 302 304 305 307 307 308 308 309 309 309 310 310 311 311 310 309 309 310 310 312 312 312 312 312 312 312 312 312 311 310 310
279 282 284 285 288 290 293 295 297 298 299 301 303 305 306 307 308 308 308 309 309 310 310 310 311 310 309 309 308 309 310 310 311 311 311 310 310 310 309 309 308 309 308
280 283 285 288 290 293 295 297 298 300 301 302 304 306 307 307 307 307 308 309 309 309 310 310 310 310 308 308 308 308 308 309 309 310 309 308 308 307 305 305 305 305 304
Height
5730 5731 5730 5730 5729 5729 5728 5727 5726 5724 5723 5721 5719 5718 5716 5714 5711 5709 5706 5703 5700 5697 5693 5689 5686 5682 5678 5673 5669 5664 5660 5655 5651 5647 5641 5635 5629 5623 5617 5611 5606 5600 5594
5722 5722 5722 5722 5721 5721 5720 5719 5717 5716 5715 5713 5712 5710 5708 5705 5703 5700 5697 5694 5691 5688 5684 5680 5677 5672 5668 5663 5659 5654 5649 5644 5639 5635 5629 5622 5616 5609 5603 5597 5591 5584 5578
5713 5713 5713 5713 5713 5712 5711 5710 5709 5708 5707 5705 5703 5701 5699 5697 5694 5692 5689 5686 5682 5679 5675 5671 5667 5662 5658 5653 5648 5643 5637 5632 5626 5621 5616 5609 5602 5595 5589 5582 5575 5568 5561
5704 5705 5705 5705 5705 5704 5703 5702 5701 5700 5698 5697 5695 5693 5690 5688 5685 5683 5680 5676 5673 5669 5665 5661 5657 5652 5648 5642 5637 5631 5625 5619 5613 5607 5601 5594 5587 5580 5573 5567 5560 5553 5545
5696 5696 5697 5696 5696 5695 5695 5694 5692 5691 5690 5688 5686 5684 5681 5679 5676 5673 5670 5667 5663 5659 5655 5651 5646 5641 5636 5631 5625 5619 5613 5606 5599 5593 5586 5579 5572 5564 5557 5550 5543 5537 5530
5687 5688 5688 5688 5687 5687 5686 5685 5684 5682 5681 5679 5677 5675 5672 5670 5667 5664 5661 5657 5653 5649 5645 5640 5635 5630 5625 5619 5613 5606 5599 5592 5585 5578 5571 5563 5556 5548 5541 5533 5526 5519 5513
5678 5679 5679 5679 5678 5678 5677 5676 5675 5673 5672 5670 5668 5665 5663 5660 5657 5654 5651 5647 5643 5639 5635 5630 5625 5619 5613 5607 5600 5593 5586 5577 5570 5563 5555 5548 5540 5532 5525 5517 5509 5501 5493
5669 5670 5670 5670 5669 5669 5668 5667 5666 5664 5662 5660 5658 5656 5653 5650 5647 5644 5640 5637 5633 5628 5623 5618 5613 5607 5600 5594 5588 5581 5573 5564 5556 5548 5540 5532 5523 5515 5507 5499 5491 5484 5477
5660 5661 5661 5661 5660 5660 5659 5658 5656 5655 5653 5651 5649 5646 5644 5640 5637 5634 5630 5626 5622 5617 5612 5606 5601 5595 5588 5581 5575 5568 5560 5551 5542 5533 5525 5516 5508 5499 5490 5482 5475 5467 5461
5651 5651 5652 5652 5651 5651 5650 5649 5647 5645 5643 5641 5639 5636 5634 5630 5627 5623 5619 5615 5611 5606 5600 5594 5588 5581 5574 5567 5560 5553 5545 5537 5529 5520 5511 5502 5493 5484 5475 5467 5459 5451 5444
5641 5642 5642 5642 5642 5641 5640 5639 5637 5636 5634 5632 5629 5627 5623 5620 5616 5612 5608 5604 5599 5594 5588 5582 5575 5568 5561 5554 5546 5538 5530 5522 5515 5506 5497 5488 5479 5470 5461 5453 5444 5436 5429
5632 5632 5633 5632 5632 5631 5631 5629 5628 5626 5624 5621 5619 5616 5612 5609 5605 5601 5596 5592 5586 5581 5575 5569 5562 5555 5548 5540 5532 5524 5516 5507 5499 5491 5482 5474 5465 5456 5448 5439 5431 5423 5415
5622 5623 5623 5623 5622 5622 5621 5619 5618 5616 5613 5611 5608 5605 5602 5598 5593 5589 5584 5579 5574 5568 5562 5556 5549 5542 5534 5526 5518 5509 5501 5493 5484 5476 5468 5459 5451 5442 5434 5427 5419 5411 5403
5613 5614 5614 5613 5613 5612 5611 5609 5608 5605 5603 5600 5597 5594 5590 5586 5582 5577 5572 5567 5561 5555 5549 5542 5535 5527 5520 5512 5503 5495 5486 5478 5470 5462 5454 5445 5437 5429 5422 5415 5407 5400 5393
5604 5604 5604 5604 5603 5602 5601 5599 5597 5595 5592 5589 5586 5583 5579 5575 5570 5565 5560 5555 5549 5543 5536 5529 5521 5513 5506 5497 5489 5480 5472 5464 5456 5448 5440 5432 5425 5417 5410 5403 5396 5389 5383
5594 5594 5594 5594 5593 5592 5590 5588 5586 5584 5581 5578 5574 5571 5567 5563 5558 5553 5548 5542 5536 5529 5522 5515 5507 5499 5492 5483 5475 5467 5458 5450 5443 5435 5428 5421 5414 5407 5400 5393 5386 5380 5374
5584 5585 5584 5584 5583 5581 5580 5578 5575 5573 5569 5566 5563 5559 5555 5551 5546 5541 5535 5529 5522 5515 5508 5501 5493 5485 5477 5469 5461 5453 5446 5438 5431 5424 5417 5410 5403 5397 5390 5384 5377 5372 5366
5574 5574 5574 5573 5572 5571 5569 5567 5564 5561 5558 5555 5551 5547 5543 5538 5533 5528 5522 5515 5509 5501 5494 5486 5479 5471 5463 5455 5447 5440 5433 5426 5419 5412 5406 5399 5393 5387 5381 5375 5370 5364 5359
5564 5564 5563 5562 5561 5560 5558 5556 5553 5550 5547 5543 5539 5535 5530 5525 5520 5514 5508 5502 5495 5488 5480 5472 5465 5457 5450 5442 5434 5427 5421 5414 5408 5401 5395 5389 5383 5377 5372 5367 5362 5357 5352
5553 5553 5552 5552 5550 5549 5547 5544 5542 5538 5535 5531 5527 5523 5518 5513 5507 5501 5494 5488 5481 5474 5466 5459 5452 5444 5437 5429 5422 5415 5409 5403 5397 5391 5385 5379 5373 5368 5363 5359 5354 5350 5346
5543 5542 5542 5541 5539 5538 5535 5533 5530 5526 5523 5519 5515 5510 5505 5500 5494 5488 5481 5474 5467 5460 5453 5446 5439 5431 5424 5417 5410 5405 5399 5393 5387 5381 5375 5369 5364 5360 5355 5351 5347 5344 5340
5532 5531 5531 5529 5528 5526 5524 5521 5518 5514 5510 5506 5502 5497 5492 5486 5480 5474 5468 5461 5454 5447 5440 5433 5426 5419 5412 5405 5400 5394 5388 5383 5377 5371 5366 5361 5357 5352 5348 5344 5341 5338 5335
5521 5520 5519 5518 5516 5514 5511 5508 5505 5501 5497 5493 5489 5484 5478 5472 5466 5460 5454 5447 5441 5434 5427 5420 5414 5407 5400 5394 5389 5384 5379 5373 5368 5363 5358 5353 5349 5345 5341 5338 5335 5332 5330
5510 5509 5508 5506 5504 5502 5499 5496 5492 5488 5484 5480 5475 5470 5465 5459 5453 5446 5440 5434 5428 5421 5414 5408 5402 5395 5389 5384 5379 5374 5369 5364 5359 5354 5350 5346 5342 5338 5335 5332 5330 5327 5325
5499 5498 5497 5495 5492 5490 5487 5484 5480 5476 5471 5467 5462 5457 5451 5445 5439 5433 5427 5421 5415 5408 5402 5396 5390 5384 5378 5373 5368 5364 5359 5355 5350 5346 5342 5338 5335 5332 5329 5327 5325 5323 5321
5488 5487 5485 5483 5480 5478 5475 5471 5467 5463 5458 5454 5449 5443 5438 5432 5426 5420 5414 5408 5402 5396 5390 5384 5378 5373 5368 5363 5358 5354 5350 5345 5341 5337 5334 5331 5328 5325 5323 5322 5320 5319 5318